| time (UTC) | temp F | wind direction | speed MPH | gust MPH | rain 1hr in | rain 24hr in | rain mn in | humidity % | barometer mb |
| 20260905115019 | 68 | 0.0 | 0.0 | 0.00 | 0.00 | 0.00 | 84 | 1015.8 | |
| 20260905113038 | 68 | 0.0 | 0.0 | 0.00 | 0.00 | 0.00 | 84 | 1015.6 | |
| 20260905112027 | 68 | 0.0 | 0.0 | 0.00 | 0.00 | 0.00 | 84 | 1015.5 | |
| 20260905111038 | 68 | 0.0 | 0.0 | 0.00 | 0.00 | 0.00 | 84 | 1015.3 | |
| 20260905110019 | 68 | 0.0 | 0.0 | 0.00 | 0.00 | 0.00 | 84 | 1015.0 | |
| 20260905105019 | 68 | 0.0 | 1.0 | 0.00 | 0.00 | 0.00 | 84 | 1015.0 | |
| 20260905104027 | 68 | 0.0 | 0.0 | 0.00 | 0.00 | 0.00 | 84 | 1015.1 | |
| 20260905103018 | 68 | 0.0 | 0.0 | 0.00 | 0.00 | 0.00 | 84 | 1015.1 | |
| 20260905102018 | 68 | 0.0 | 1.0 | 0.00 | 0.00 | 0.00 | 84 | 1015.2 | |
| 20260905101027 | 69 | 0.0 | 1.0 | 0.00 | 0.01 | 0.00 | 84 | 1015.2 | |
| 20260905100020 | 69 | 0.0 | 0.0 | 0.00 | 0.02 | 0.00 | 84 | 1015.3 | |
| 20260905095047 | 69 | 0.0 | 0.0 | 0.00 | 0.02 | 0.00 | 84 | 1015.4 | |
| 20260905094027 | 69 | 0.0 | 0.0 | 0.00 | 0.03 | 0.00 | 84 | 1015.4 | |
| 20260905093039 | 69 | 0.0 | 1.0 | 0.00 | 0.03 | 0.00 | 84 | 1015.4 | |
| 20260905092018 | 69 | 0.0 | 0.0 | 0.00 | 0.03 | 0.00 | 84 | 1015.3 | |
| 20260905091027 | 69 | 0.0 | 0.0 | 0.00 | 0.03 | 0.00 | 85 | 1015.3 | |
| 20260905090039 | 69 | 0.0 | 0.0 | 0.00 | 0.03 | 0.00 | 84 | 1015.3 | |
| 20260905085026 | 69 | 0.0 | 0.0 | 0.00 | 0.06 | 0.00 | 85 | 1015.2 | |
| 20260905084019 | 70 | 0.0 | 0.0 | 0.00 | 0.07 | 0.00 | 85 | 1015.0 | |
| 20260905083026 | 70 | 0.0 | 1.0 | 0.00 | 0.08 | 0.00 | 85 | 1015.0 | |
| 20260905082106 | 70 | 0.0 | 0.0 | 0.00 | 0.12 | 0.00 | 85 | 1015.1 | |
| 20260905081018 | 70 | 0.0 | 0.0 | 0.00 | 0.12 | 0.00 | 86 | 1015.1 | |
| 20260905080018 | 70 | 0.0 | 0.0 | 0.00 | 0.12 | 0.00 | 86 | 1015.0 | |
| 20260905075059 | 71 | 0.0 | 0.0 | 0.00 | 0.12 | 0.00 | 86 | 1015.0 | |
| 20260905074124 | 71 | 0.0 | 0.0 | 0.00 | 0.12 | 0.00 | 87 | 1014.8 | |
| 20260905073018 | 71 | 0.0 | 1.0 | 0.00 | 0.12 | 0.00 | 87 | 1014.9 | |
| 20260905072027 | 71 | 0.0 | 1.0 | 0.00 | 0.12 | 0.00 | 86 | 1015.0 | |
| 20260905071036 | 71 | 0.0 | 0.0 | 0.00 | 0.12 | 0.00 | 86 | 1015.0 | |
| 20260905070019 | 71 | 0.0 | 1.0 | 0.00 | 0.12 | 0.00 | 87 | 1015.0 | |
| 20260905065020 | 71 | 0.0 | 0.0 | 0.00 | 0.12 | 0.00 | 87 | 1015.1 | |
| 20260905064018 | 71 | 0.0 | 1.0 | 0.00 | 0.12 | 0.00 | 87 | 1015.1 | |
| 20260905063018 | 71 | 0.0 | 0.0 | 0.00 | 0.12 | 0.00 | 87 | 1015.0 | |
| 20260905062048 | 71 | 0.0 | 1.0 | 0.00 | 0.12 | 0.00 | 87 | 1014.9 | |
| 20260905061216 | 71 | 0.0 | 0.0 | 0.00 | 0.12 | 0.00 | 87 | 1015.0 | |
| 20260905060026 | 71 | 0.0 | 1.0 | 0.00 | 0.12 | 0.00 | 87 | 1015.0 | |
| 20260905055020 | 71 | 0.0 | 1.0 | 0.00 | 0.12 | 0.00 | 88 | 1015.0 | |
| 20260905054018 | 71 | 0.0 | 1.0 | 0.00 | 0.12 | 0.00 | 88 | 1015.0 | |
| 20260905053035 | 71 | 0.0 | 1.0 | 0.00 | 0.12 | 0.00 | 88 | 1014.9 | |
| 20260905052029 | 71 | 0.0 | 0.0 | 0.00 | 0.12 | 0.00 | 88 | 1014.8 | |
| 20260905051019 | 71 | 68 | 1.0 | 4.0 | 0.00 | 0.12 | 0.00 | 88 | 1014.8 |
| 20260905050028 | 72 | 0.0 | 2.0 | 0.00 | 0.12 | 0.12 | 88 | 1014.7 | |
| 20260905045028 | 72 | 0.0 | 2.0 | 0.00 | 0.12 | 0.12 | 88 | 1014.6 | |
| 20260905044020 | 72 | 0.0 | 0.0 | 0.00 | 0.12 | 0.12 | 88 | 1014.5 | |
| 20260905043020 | 72 | 0.0 | 0.0 | 0.00 | 0.12 | 0.12 | 88 | 1014.5 | |
| 20260905042020 | 72 | 68 | 1.0 | 5.0 | 0.00 | 0.12 | 0.12 | 88 | 1014.4 |
| 20260905041020 | 72 | 0.0 | 1.0 | 0.00 | 0.12 | 0.12 | 87 | 1014.3 | |
| 20260905040021 | 73 | 0.0 | 2.0 | 0.00 | 0.12 | 0.12 | 88 | 1014.3 | |
| 20260905035028 | 73 | 0.0 | 2.0 | 0.00 | 0.12 | 0.12 | 87 | 1014.3 | |
| 20260905034048 | 73 | 0.0 | 0.0 | 0.00 | 0.12 | 0.12 | 87 | 1014.4 | |
| 20260905033020 | 73 | 0.0 | 2.0 | 0.00 | 0.12 | 0.12 | 87 | 1014.3 | |
| 20260905032020 | 73 | 0.0 | 2.0 | 0.00 | 0.12 | 0.12 | 87 | 1014.1 | |
| 20260905031020 | 73 | 0.0 | 2.0 | 0.00 | 0.12 | 0.12 | 88 | 1014.2 | |
| 20260905030020 | 73 | 0.0 | 3.0 | 0.00 | 0.12 | 0.12 | 87 | 1014.1 | |
| 20260905025022 | 73 | 0.0 | 4.0 | 0.00 | 0.12 | 0.12 | 87 | 1014.0 | |
| 20260905024020 | 73 | 0.0 | 2.0 | 0.00 | 0.12 | 0.12 | 85 | 1014.0 | |
| 20260905023020 | 72 | 0.0 | 5.0 | 0.00 | 0.12 | 0.12 | 84 | 1013.8 | |
| 20260905022037 | 71 | 0.0 | 0.0 | 0.00 | 0.12 | 0.12 | 88 | 1013.7 | |
| 20260905021100 | 71 | 0.0 | 0.0 | 0.00 | 0.12 | 0.12 | 89 | 1013.6 | |
| 20260905020020 | 71 | 0.0 | 0.0 | 0.00 | 0.12 | 0.12 | 89 | 1013.6 | |
| 20260905015020 | 72 | 0.0 | 0.0 | 0.00 | 0.12 | 0.12 | 89 | 1013.5 | |
| 20260905014037 | 72 | 0.0 | 0.0 | 0.00 | 0.12 | 0.12 | 88 | 1013.5 | |
| 20260905013028 | 73 | 0.0 | 0.0 | 0.00 | 0.12 | 0.12 | 87 | 1013.3 | |
| 20260905012048 | 74 | 0.0 | 0.0 | 0.00 | 0.40 | 0.12 | 86 | 1013.3 | |
| 20260905011029 | 74 | 0.0 | 1.0 | 0.00 | 0.42 | 0.12 | 85 | 1013.2 | |
| 20260905010040 | 75 | 0.0 | 0.0 | 0.00 | 0.42 | 0.12 | 82 | 1012.9 | |
| 20260905005019 | 75 | 0.0 | 0.0 | 0.00 | 0.42 | 0.12 | 81 | 1012.7 | |
| 20260905004028 | 76 | 0.0 | 0.0 | 0.00 | 0.42 | 0.12 | 77 | 1012.6 | |
| 20260905003036 | 78 | 0.0 | 1.0 | 0.00 | 0.42 | 0.12 | 78 | 1013.1 | |
| 20260905002027 | 79 | 0.0 | 1.0 | 0.00 | 0.42 | 0.12 | 82 | 1013.1 | |
| 20260905001019 | 80 | 0.0 | 0.0 | 0.00 | 0.42 | 0.12 | 87 | 1013.1 | |
| 20260905000040 | 81 | 0.0 | 0.0 | 0.00 | 0.42 | 0.12 | 85 | 1012.7 | |
| 20260904235020 | 81 | 0.0 | 0.0 | 0.00 | 0.42 | 0.12 | 84 | 1012.7 | |
| 20260904234057 | 81 | 0.0 | 0.0 | 0.00 | 0.42 | 0.12 | 84 | 1013.0 | |
| 20260904233040 | 82 | 0.0 | 0.0 | 0.00 | 0.42 | 0.12 | 83 | 1013.2 | |
| 20260904232019 | 82 | 0.0 | 0.0 | 0.00 | 0.42 | 0.12 | 81 | 1012.6 | |
| 20260904231019 | 82 | 0.0 | 2.0 | 0.00 | 0.42 | 0.12 | 81 | 1011.7 | |
| 20260904230037 | 82 | 0.0 | 0.0 | 0.00 | 0.42 | 0.12 | 81 | 1012.5 | |
| 20260904225019 | 83 | 0.0 | 1.0 | 0.00 | 0.42 | 0.12 | 80 | 1011.8 | |
| 20260904224037 | 83 | 0.0 | 0.0 | 0.00 | 0.42 | 0.12 | 79 | 1011.8 | |
| 20260904223028 | 83 | 0.0 | 1.0 | 0.00 | 0.42 | 0.12 | 78 | 1012.2 | |
| 20260904222019 | 84 | 0.0 | 1.0 | 0.00 | 0.42 | 0.12 | 78 | 1012.1 | |
| 20260904221020 | 84 | 0.0 | 0.0 | 0.00 | 0.42 | 0.12 | 76 | 1011.9 | |
| 20260904220020 | 85 | 0.0 | 0.0 | 0.00 | 0.42 | 0.12 | 76 | 1012.0 | |
| 20260904215039 | 85 | 0.0 | 0.0 | 0.00 | 0.42 | 0.12 | 75 | 1012.0 | |
| 20260904214019 | 85 | 0.0 | 0.0 | 0.00 | 0.42 | 0.12 | 74 | 1012.0 | |
| 20260904213036 | 85 | 0.0 | 1.0 | 0.00 | 0.42 | 0.12 | 73 | 1011.9 | |
| 20260904212028 | 85 | 0.0 | 0.0 | 0.00 | 0.42 | 0.12 | 74 | 1011.8 | |
| 20260904211019 | 85 | 0.0 | 0.0 | 0.00 | 0.42 | 0.12 | 73 | 1011.8 | |
| 20260904210039 | 86 | 0.0 | 2.0 | 0.00 | 0.42 | 0.12 | 73 | 1012.0 | |
| 20260904205019 | 86 | 0.0 | 0.0 | 0.00 | 0.42 | 0.12 | 75 | 1012.0 | |
| 20260904204019 | 85 | 0.0 | 1.0 | 0.00 | 0.42 | 0.12 | 74 | 1011.8 | |
| 20260904203019 | 84 | 0.0 | 0.0 | 0.00 | 0.42 | 0.12 | 75 | 1011.8 | |
| 20260904202108 | 83 | 0.0 | 1.0 | 0.00 | 0.42 | 0.12 | 78 | 1011.9 | |
| 20260904201048 | 83 | 0.0 | 1.0 | 0.00 | 0.42 | 0.12 | 78 | 1012.0 | |
| 20260904200039 | 83 | 0.0 | 1.0 | 0.00 | 0.42 | 0.12 | 78 | 1012.1 | |
| 20260904195039 | 83 | 0.0 | 2.0 | 0.00 | 0.42 | 0.12 | 76 | 1012.3 | |
| 20260904194036 | 83 | 0.0 | 2.0 | 0.00 | 0.42 | 0.12 | 78 | 1012.4 | |
| 20260904193028 | 83 | 0.0 | 3.0 | 0.00 | 0.42 | 0.12 | 77 | 1012.4 | |
| 20260904192019 | 83 | 0.0 | 0.0 | 0.00 | 0.42 | 0.12 | 77 | 1012.5 | |
| 20260904191019 | 83 | 0.0 | 5.0 | 0.00 | 0.42 | 0.12 | 75 | 1012.6 | |
| 20260904190019 | 84 | 0.0 | 5.0 | 0.00 | 0.42 | 0.12 | 75 | 1012.7 | |
| 20260904185019 | 85 | 0.0 | 5.0 | 0.00 | 0.42 | 0.12 | 74 | 1012.8 | |
| 20260904184100 | 85 | 0.0 | 2.0 | 0.00 | 0.42 | 0.12 | 72 | 1012.9 | |
| 20260904183019 | 85 | 0.0 | 6.0 | 0.00 | 0.42 | 0.12 | 74 | 1013.0 | |
| 20260904182048 | 85 | 0.0 | 5.0 | 0.00 | 0.42 | 0.12 | 75 | 1013.0 | |
| 20260904181019 | 85 | 0.0 | 4.0 | 0.00 | 0.42 | 0.12 | 74 | 1012.9 | |
| 20260904180019 | 85 | 203 | 1.0 | 4.0 | 0.00 | 0.42 | 0.12 | 75 | 1012.9 |
| 20260904175057 | 84 | 0.0 | 2.0 | 0.00 | 0.42 | 0.12 | 76 | 1012.7 | |
| 20260904174019 | 84 | 0.0 | 3.0 | 0.00 | 0.42 | 0.12 | 78 | 1012.7 | |
| 20260904173019 | 83 | 225 | 1.0 | 4.0 | 0.00 | 0.42 | 0.12 | 76 | 1012.6 |
| 20260904172057 | 83 | 0.0 | 3.0 | 0.00 | 0.42 | 0.12 | 77 | 1012.8 | |
| 20260904171019 | 83 | 0.0 | 2.0 | 0.00 | 0.42 | 0.12 | 79 | 1012.8 | |
| 20260904170019 | 82 | 0.0 | 1.0 | 0.00 | 0.42 | 0.12 | 79 | 1012.9 | |
| 20260904165019 | 81 | 0.0 | 2.0 | 0.00 | 0.42 | 0.12 | 82 | 1012.9 | |
| 20260904164019 | 81 | 0.0 | 3.0 | 0.00 | 0.42 | 0.12 | 82 | 1013.1 | |
| 20260904163019 | 80 | 0.0 | 6.0 | 0.00 | 0.42 | 0.12 | 83 | 1013.1 | |
| 20260904162019 | 80 | 0.0 | 1.0 | 0.00 | 0.42 | 0.12 | 85 | 1013.2 | |
| 20260904161045 | 79 | 0.0 | 3.0 | 0.00 | 0.42 | 0.12 | 85 | 1013.4 | |
| 20260904160019 | 78 | 0.0 | 2.0 | 0.00 | 0.42 | 0.12 | 87 | 1013.3 | |
| 20260904155028 | 78 | 0.0 | 4.0 | 0.00 | 0.42 | 0.12 | 88 | 1013.4 | |
| 20260904154036 | 76 | 0.0 | 2.0 | 0.00 | 0.42 | 0.12 | 89 | 1013.4 | |
| 20260904153028 | 75 | 0.0 | 2.0 | 0.00 | 0.42 | 0.12 | 88 | 1013.3 | |
| 20260904152036 | 75 | 0.0 | 2.0 | 0.00 | 0.42 | 0.12 | 88 | 1013.2 | |
| 20260904151036 | 74 | 0.0 | 2.0 | 0.00 | 0.42 | 0.12 | 84 | 1013.1 | |
| 20260904150027 | 73 | 0.0 | 3.0 | 0.00 | 0.42 | 0.12 | 83 | 1013.1 | |
| 20260904145028 | 73 | 0.0 | 3.0 | 0.00 | 0.42 | 0.12 | 82 | 1013.3 | |
| 20260904144019 | 73 | 0.0 | 4.0 | 0.00 | 0.42 | 0.12 | 81 | 1013.2 | |
| 20260904143044 | 72 | 0.0 | 3.0 | 0.00 | 0.43 | 0.12 | 80 | 1013.2 | |
| 20260904142036 | 72 | 0.0 | 2.0 | 0.00 | 0.43 | 0.12 | 80 | 1013.3 | |
| 20260904141019 | 72 | 0.0 | 1.0 | 0.00 | 0.43 | 0.12 | 81 | 1013.2 | |
| 20260904140044 | 71 | 0.0 | 1.0 | 0.00 | 0.43 | 0.12 | 81 | 1013.3 | |
| 20260904135018 | 71 | 0.0 | 1.0 | 0.00 | 0.43 | 0.12 | 81 | 1013.3 | |
| 20260904134027 | 70 | 0.0 | 1.0 | 0.00 | 0.43 | 0.12 | 81 | 1013.2 | |
| 20260904133019 | 70 | 0.0 | 0.0 | 0.00 | 0.43 | 0.12 | 81 | 1013.3 | |
| 20260904132044 | 70 | 0.0 | 0.0 | 0.00 | 0.44 | 0.12 | 81 | 1013.4 | |
| 20260904131028 | 70 | 0.0 | 1.0 | 0.00 | 0.46 | 0.12 | 81 | 1013.1 | |
| 20260904130045 | 70 | 0.0 | 0.0 | 0.00 | 0.46 | 0.12 | 81 | 1012.8 | |
| 20260904125039 | 69 | 0.0 | 1.0 | 0.00 | 0.46 | 0.12 | 81 | 1012.7 | |
| 20260904124036 | 69 | 0.0 | 1.0 | 0.00 | 0.46 | 0.12 | 81 | 1012.8 | |
| 20260904123028 | 69 | 0.0 | 1.0 | 0.00 | 0.46 | 0.12 | 81 | 1013.0 | |
| 20260904122019 | 69 | 0.0 | 3.0 | 0.00 | 0.46 | 0.12 | 81 | 1012.4 | |
| 20260904121018 | 69 | 0.0 | 1.0 | 0.00 | 0.46 | 0.12 | 81 | 1012.4 | |
| 20260904120048 | 69 | 0.0 | 1.0 | 0.00 | 0.46 | 0.12 | 81 | 1012.1 |